#timestamp,LO_Frequency,Hit,StdDev 
1510804815.1,286047006.5,N
1510804816.0,286047006.5,N
1510804835.8,286047006.0,N
1510804855.7,286047008.8,N
1510804875.5,286047005.3,N
1510804895.3,286047003.8,N
1510804915.2,286047000.1,N
1510804935.9,286047000.6,N
1510804955.7,286046996.8,N
1510804975.5,286046990.3,N
1510804995.4,286046988.8,N
1510805015.2,286046987.4,N
1510805035.0,286046989.2,N
1510805035.9,286046989.2,N
1510805055.8,286046988.8,N
1510805075.6,286046991.4,N
1510805095.4,286046987.6,N
1510805115.3,286046985.3,N
1510805135.1,286046983.0,N
1510805136.0,286046983.0,N
1510805155.8,286046984.6,N
1510805175.7,286046988.0,N
1510805195.5,286046987.5,N
1510805215.3,286046990.4,N
1510805235.2,286046997.3,N
1510805255.9,286047003.7,N
1510805275.7,286047009.8,N
1510805295.6,286047009.7,N
1510805315.4,286047016.4,N
1510805335.2,286047025.9,N
1510805355.1,286047033.7,Y
1510805356.0,286047033.7,P
1510805375.8,286047044.1,N
1510805395.6,286047040.6,N
1510805415.4,286047039.0,N
1510805435.3,286047034.2,N
1510805455.1,286047028.2,N
1510805475.8,286047022.1,N
1510805495.7,286047029.2,N
1510805515.5,286047029.3,N
1510805535.3,286047028.6,N
1510805555.2,286047027.6,N
1510805575.9,286047028.2,N
1510805595.7,286047029.7,N
1510805615.6,286047035.6,Y
1510805635.4,286047013.8,P
1510805655.2,286047017.0,N
1510805675.1,286047021.4,P
1510805676.0,286047021.4,Y
1510805695.8,286047004.7,P
1510805715.6,286047003.8,N
1510805735.5,286047009.1,N
1510805755.3,286047010.9,N
1510805775.1,286047011.2,N
1510805795.9,286047009.5,N
1510805815.7,286047013.9,N
1510805835.5,286047013.8,N
1510805855.3,286047012.5,N
1510805875.2,286047009.1,N
1510805895.0,286047009.2,N
1510805895.9,286047009.2,N
1510805915.7,286047010.0,N
1510805935.6,286047001.7,N
1510805955.4,286046994.9,N
1510805975.2,286046997.6,N
1510805995.1,286047001.1,N
1510805996.0,286047001.1,N
1510806015.8,286047001.9,N
1510806035.6,286046996.9,N
1510806055.5,286046988.8,N
1510806075.3,286046982.8,N
1510806095.1,286046978.8,N
1510806115.9,286046975.4,N
1510806135.7,286046970.2,N
1510806155.5,286046969.0,N
1510806175.4,286046970.1,N
1510806195.2,286046967.8,N
1510806215.0,286046966.5,N
1510806215.9,286046966.5,N
1510806235.7,286046969.2,N
1510806255.6,286046970.5,N
1510806275.4,286046971.5,N
1510806295.2,286046967.9,N
1510806315.1,286046967.3,N
1510806316.0,286046967.3,N
1510806335.8,286046964.2,N
1510806355.6,286046964.4,N
1510806375.5,286046961.4,N
1510806395.3,286046963.3,N
1510806415.1,286046965.9,N
1510806435.9,286046971.1,N
1510806455.7,286046970.8,N
1510806475.5,286046959.8,N
1510806495.4,286046961.3,N
1510806515.2,286046969.7,N
1510806535.0,286046971.7,N
1510806535.9,286046971.7,N
1510806555.8,286046971.4,N
1510806575.6,286046973.2,Y
1510806595.4,286047007.5,P
1510806615.3,286047008.6,N
1510806635.1,286047008.4,N
1510806636.0,286047008.4,N
1510806655.8,286047008.6,N
1510806675.7,286047006.2,N
1510806695.5,286047003.5,N
1510806715.3,286047000.7,N
1510806735.1,286046994.4,N
1510806755.9,286046991.1,N
1510806775.7,286046995.1,N
1510806795.5,286047002.5,N
1510806815.4,286046998.4,N
1510806835.2,286046997.4,N
1510806855.0,286046990.2,N
1510806855.9,286046990.2,N
1510806875.8,286046994.2,N
1510806895.6,286046992.2,N
1510806915.4,286046995.9,N
1510806935.3,286047000.7,N
1510806955.1,286047000.5,N
1510806956.0,286047000.5,N
1510806975.8,286047002.2,N
1510806995.6,286047005.8,N
1510807015.5,286047005.7,N
1510807035.3,286047004.9,N
1510807055.1,286047001.3,N
1510807075.9,286046999.8,N
1510807095.7,286047000.4,N
1510807115.5,286046996.0,N
1510807135.4,286046990.5,N
1510807155.2,286046993.8,N
1510807175.0,286047000.9,N
1510807175.9,286047000.9,N
1510807195.8,286046998.1,N
1510807215.6,286047002.3,N
1510807235.4,286047002.0,N
1510807255.3,286047000.8,N
1510807275.1,286046998.8,N
1510807276.0,286046998.8,N
1510807295.8,286047000.8,N
1510807315.7,286046996.1,N
1510807335.5,286046997.9,N
1510807355.3,286047001.4,N
1510807375.1,286046996.4,N
1510807395.9,286046998.8,N
1510807415.7,286047003.8,N
1510807435.5,286047012.4,Y
1510807455.4,286047007.4,P
1510807475.2,286047002.4,N
1510807495.0,286046999.4,N
1510807495.9,286046999.4,N
1510807515.8,286046998.6,N
1510807535.6,286046997.1,N
1510807555.4,286047002.6,N
1510807575.3,286046995.2,N
1510807595.1,286046992.1,N
1510807596.0,286046992.1,N
1510807615.8,286046993.9,N
1510807635.7,286046995.5,N
1510807655.5,286046991.6,N
1510807675.3,286046985.6,Y
1510807695.2,286046995.4,P
1510807715.9,286046999.8,N
1510807735.7,286047002.8,N
1510807755.6,286047003.2,N
1510807775.4,286047010.5,Y
1510807795.2,286047014.9,P
1510807815.1,286047020.4,N
1510807816.0,286047020.4,N
1510807835.8,286047022.7,N
1510807855.6,286047019.1,N
1510807875.5,286047028.7,Y
1510807895.3,286047020.2,P
1510807915.1,286047025.7,P
1510807935.9,286047028.1,P
1510807955.7,286047033.7,Y
1510807975.5,286047014.9,P
1510807995.4,286047015.4,P
1510808015.2,286047015.9,P
1510808035.0,286047017.5,Y
1510808035.9,286047017.5,P
1510808055.8,286047005.4,P
1510808075.6,286047007.0,N
1510808095.4,286047004.4,N
1510808115.2,286047008.1,N
1510808135.1,286047010.2,N
1510808136.0,286047010.2,N
1510808155.8,286047015.2,Y
1510808175.7,286046999.8,P
1510808195.5,286047002.7,N
1510808215.3,286047002.2,N
1510808235.1,286047006.0,N
1510808255.9,286047011.6,Y
1510808275.7,286047004.5,P
1510808295.5,286047004.9,P
1510808315.4,286047003.1,P
1510808335.2,286047006.0,Y
1510808355.0,286046996.8,P
1510808356.0,286046996.8,N
1510808375.8,286046990.9,N
1510808395.6,286046993.5,N
